Location: Budapest
(47.4979°N, 19.0402°E)
Time: 09:52:47
(UTC+02:00)

Envisat - Pass Details

Date: 08 October 2017
Orbit: 764 x 766 km, 98.2° (Epoch: 23 October)

Event Time Altitude Azimuth Distance (km) Brightness Sun altitude
Exits shadow 20:00:33 34° 133° (SE) 1,247 3.6 -19.5°
Maximum altitude 20:02:34 57° 71° (ENE) 900 3.0 -19.9°
Drops below altitude 10° 20:07:33 10° 354° (N) 2,314 5.7 -20.7°
Sets 20:09:54 0° 350° (N) 3,244 6.6 -21.1°
